OHCPE EFHK-EFHK

Flight info

Callsign OHCPE
Flight time 1h 3m
Altitude 2500
Route TURFI DCT ORM DCT PVO DCT LILJA
Aircraft DA62/L-SDFGRY/C

Departure

Time 2026-05-06 13:25
Airport Helsinki Vantaa Airport (EFHK)

Arrival

Time 2026-05-06 14:29
Airport Helsinki Vantaa Airport (EFHK)
Time Latitude Longitude Altitude Speed Heading
2026-05-06 12:59 60.30848 24.97960 156 ft 0 kts 208°
2026-05-06 13:16 60.30847 24.97959 156 ft 2 kts 202°
2026-05-06 13:16 60.30870 24.98054 156 ft 4 kts 48°
2026-05-06 13:16 60.30924 24.98105 156 ft 10 kts 60°
2026-05-06 13:16 60.30973 24.98215 155 ft 14 kts 348°
2026-05-06 13:17 60.31074 24.98123 155 ft 18 kts 333°
2026-05-06 13:17 60.31198 24.97998 155 ft 22 kts 332°
2026-05-06 13:17 60.31330 24.97862 155 ft 19 kts 332°
2026-05-06 13:17 60.31448 24.97734 155 ft 20 kts 333°
2026-05-06 13:18 60.31586 24.97592 155 ft 25 kts 332°
2026-05-06 13:18 60.31752 24.97423 155 ft 29 kts 332°
2026-05-06 13:18 60.31925 24.97243 155 ft 27 kts 336°
2026-05-06 13:18 60.32087 24.97078 155 ft 26 kts 332°
2026-05-06 13:19 60.32253 24.96906 155 ft 27 kts 333°
2026-05-06 13:19 60.32383 24.96773 156 ft 11 kts 333°
2026-05-06 13:19 60.32389 24.96766 156 ft 0 kts 334°
2026-05-06 13:21 60.32390 24.96765 156 ft 2 kts 333°
2026-05-06 13:21 60.32484 24.96660 157 ft 24 kts 329°
2026-05-06 13:22 60.32661 24.96461 155 ft 34 kts 332°
2026-05-06 13:22 60.32866 24.96229 156 ft 27 kts 327°
2026-05-06 13:22 60.32906 24.96043 155 ft 12 kts 260°
2026-05-06 13:22 60.32943 24.95917 155 ft 12 kts 328°
2026-05-06 13:23 60.33021 24.95832 155 ft 15 kts 327°
2026-05-06 13:23 60.33130 24.95663 155 ft 24 kts 318°
2026-05-06 13:23 60.33211 24.95421 155 ft 17 kts 256°
2026-05-06 13:23 60.33136 24.95211 155 ft 17 kts 234°
2026-05-06 13:24 60.33108 24.95010 155 ft 14 kts 273°
2026-05-06 13:24 60.33113 24.94799 156 ft 18 kts 269°
2026-05-06 13:24 60.33121 24.94518 163 ft 16 kts 273°
2026-05-06 13:24 60.33104 24.94373 167 ft 9 kts 234°
2026-05-06 13:25 60.32974 24.94068 172 ft 58 kts 229°
2026-05-06 13:25 60.32631 24.93273 348 ft 81 kts 232°
2026-05-06 13:25 60.32339 24.92306 631 ft 87 kts 266°
2026-05-06 13:25 60.32779 24.91316 850 ft 109 kts 324°
2026-05-06 13:26 60.33525 24.90536 878 ft 135 kts 333°
2026-05-06 13:26 60.34533 24.90563 873 ft 161 kts 18°
2026-05-06 13:26 60.35523 24.91716 865 ft 169 kts 27°
2026-05-06 13:26 60.36521 24.92954 877 ft 167 kts 28°
2026-05-06 13:27 60.37470 24.94157 914 ft 158 kts 28°
2026-05-06 13:27 60.38406 24.95329 951 ft 159 kts 29°
2026-05-06 13:27 60.39344 24.96494 934 ft 156 kts 28°
2026-05-06 13:27 60.40287 24.97641 920 ft 159 kts 24°
2026-05-06 13:28 60.41284 24.98546 922 ft 156 kts 20°
2026-05-06 13:28 60.42275 24.99454 925 ft 158 kts 22°
2026-05-06 13:28 60.43260 25.00408 921 ft 155 kts 21°
2026-05-06 13:28 60.44215 25.01406 921 ft 160 kts 30°
2026-05-06 13:29 60.45041 25.02923 929 ft 161 kts 41°
2026-05-06 13:29 60.45866 25.04479 918 ft 162 kts 39°
2026-05-06 13:29 60.46681 25.06011 1005 ft 159 kts 40°
2026-05-06 13:29 60.47480 25.07518 1142 ft 156 kts 40°
2026-05-06 13:30 60.48267 25.09008 1274 ft 153 kts 38°
2026-05-06 13:30 60.49045 25.10487 1414 ft 153 kts 38°
2026-05-06 13:30 60.49814 25.11946 1533 ft 151 kts 38°
2026-05-06 13:30 60.50584 25.13407 1659 ft 149 kts 38°
2026-05-06 13:31 60.51341 25.14818 1802 ft 149 kts 39°
2026-05-06 13:31 60.52091 25.16227 1943 ft 145 kts 38°
2026-05-06 13:31 60.52847 25.17649 2162 ft 153 kts 40°
2026-05-06 13:31 60.53626 25.19129 2334 ft 156 kts 37°
2026-05-06 13:32 60.54442 25.20660 2465 ft 164 kts 39°
2026-05-06 13:32 60.55290 25.22286 2458 ft 172 kts 38°
2026-05-06 13:32 60.56180 25.23961 2467 ft 180 kts 38°
2026-05-06 13:32 60.57090 25.25697 2473 ft 179 kts 39°
2026-05-06 13:33 60.57994 25.27427 2466 ft 179 kts 40°
2026-05-06 13:33 60.58883 25.29113 2456 ft 176 kts 38°
2026-05-06 13:33 60.59767 25.30799 2474 ft 174 kts 37°
2026-05-06 13:33 60.60660 25.32500 2449 ft 175 kts 40°
2026-05-06 13:34 60.61536 25.34182 2457 ft 171 kts 40°
2026-05-06 13:34 60.62408 25.35834 2455 ft 174 kts 39°
2026-05-06 13:34 60.63294 25.37528 2446 ft 176 kts 40°
2026-05-06 13:34 60.64186 25.39226 2470 ft 177 kts 39°
2026-05-06 13:35 60.65092 25.40973 2435 ft 177 kts 39°
2026-05-06 13:35 60.65969 25.42649 2447 ft 170 kts 38°
2026-05-06 13:35 60.66849 25.44335 2453 ft 177 kts 38°
2026-05-06 13:35 60.67736 25.46038 2447 ft 172 kts 38°
2026-05-06 13:36 60.68604 25.47702 2454 ft 171 kts 39°
2026-05-06 13:36 60.69442 25.49315 2451 ft 166 kts 39°
2026-05-06 13:36 60.70287 25.50943 2466 ft 168 kts 39°
2026-05-06 13:36 60.71141 25.52577 2456 ft 167 kts 38°
2026-05-06 13:37 60.71978 25.54201 2448 ft 168 kts 38°
2026-05-06 13:37 60.72808 25.55843 2456 ft 164 kts 40°
2026-05-06 13:37 60.73647 25.57433 2458 ft 164 kts 34°
2026-05-06 13:37 60.74506 25.58982 2458 ft 167 kts 43°
2026-05-06 13:38 60.75279 25.60711 2459 ft 167 kts 44°
2026-05-06 13:38 60.76066 25.62463 2463 ft 168 kts 43°
2026-05-06 13:38 60.76856 25.64226 2459 ft 168 kts 41°
2026-05-06 13:38 60.77635 25.65980 2452 ft 166 kts 41°
2026-05-06 13:39 60.78423 25.67732 2458 ft 168 kts 42°
2026-05-06 13:39 60.79220 25.69508 2454 ft 169 kts 41°
2026-05-06 13:39 60.80019 25.71267 2450 ft 169 kts 44°
2026-05-06 13:39 60.80814 25.73029 2453 ft 169 kts 43°
2026-05-06 13:40 60.81615 25.74806 2454 ft 169 kts 43°
2026-05-06 13:40 60.82403 25.76531 2456 ft 166 kts 43°
2026-05-06 13:40 60.83179 25.78260 2454 ft 164 kts 43°
2026-05-06 13:40 60.83939 25.79974 2458 ft 162 kts 41°
2026-05-06 13:41 60.84712 25.81711 2442 ft 164 kts 40°
2026-05-06 13:41 60.85677 25.82791 2444 ft 158 kts 11°
2026-05-06 13:41 60.86723 25.83438 2457 ft 159 kts 11°
2026-05-06 13:41 60.87795 25.84092 2442 ft 163 kts 10°
2026-05-06 13:42 60.88862 25.84739 2452 ft 158 kts 12°
2026-05-06 13:42 60.89902 25.85374 2455 ft 154 kts 10°
2026-05-06 13:42 60.90909 25.85998 2465 ft 153 kts 10°
2026-05-06 13:42 60.91940 25.86627 2432 ft 158 kts 11°
2026-05-06 13:43 60.92977 25.87275 2447 ft 154 kts 12°
2026-05-06 13:43 60.94005 25.87922 2454 ft 155 kts 10°
2026-05-06 13:43 60.95046 25.88575 2459 ft 158 kts 12°
2026-05-06 13:43 60.96103 25.89215 2441 ft 157 kts 10°
2026-05-06 13:44 60.97158 25.89862 2451 ft 160 kts 10°
2026-05-06 13:44 60.98224 25.90518 2461 ft 161 kts 11°
2026-05-06 13:44 60.99301 25.91179 2442 ft 161 kts 12°
2026-05-06 13:44 61.00371 25.91819 2453 ft 165 kts 10°
2026-05-06 13:45 61.01472 25.92531 2448 ft 165 kts 18°
2026-05-06 13:45 61.03471 25.94813 2442 ft 160 kts 26°
2026-05-06 13:45 61.04432 25.96013 2448 ft 162 kts 26°
2026-05-06 13:46 61.05405 25.97241 2449 ft 166 kts 25°
2026-05-06 13:46 61.05459 25.97308 2446 ft 167 kts 26°
2026-05-06 13:47 61.05957 25.97933 2450 ft 164 kts 26°
2026-05-06 13:47 61.06924 25.99160 2351 ft 162 kts 27°
2026-05-06 13:47 61.07919 26.00129 1715 ft 153 kts
2026-05-06 13:48 61.08927 25.99886 1194 ft 135 kts 342°
2026-05-06 13:48 61.09829 25.99619 1004 ft 137 kts 358°
2026-05-06 13:48 61.10763 26.00357 846 ft 140 kts 22°
2026-05-06 13:48 61.11323 26.01919 863 ft 143 kts 81°
2026-05-06 13:49 61.11333 26.03983 797 ft 140 kts 89°
2026-05-06 13:49 61.11690 26.05521 903 ft 116 kts 26°
2026-05-06 13:49 61.12409 26.05795 981 ft 104 kts 332°
2026-05-06 13:49 61.12856 26.04690 992 ft 103 kts 283°
2026-05-06 13:50 61.12720 26.03201 869 ft 114 kts 242°
2026-05-06 13:50 61.12086 26.02232 818 ft 118 kts 208°
2026-05-06 13:50 61.11304 26.01688 794 ft 109 kts 218°
2026-05-06 13:50 61.11197 26.00428 818 ft 100 kts 292°
2026-05-06 13:51 61.11793 25.99971 860 ft 112 kts 11°
2026-05-06 13:51 61.12284 26.01146 996 ft 114 kts 85°
2026-05-06 13:51 61.11924 26.02672 857 ft 120 kts 149°
2026-05-06 13:51 61.11327 26.02332 864 ft 98 kts 240°
2026-05-06 13:52 61.10980 26.01003 789 ft 103 kts 263°
2026-05-06 13:52 61.11341 25.99914 881 ft 92 kts 303°
2026-05-06 13:52 61.11614 25.98791 914 ft 87 kts 294°
2026-05-06 13:52 61.12031 25.97941 961 ft 90 kts 332°
2026-05-06 13:53 61.12717 25.97801 826 ft 105 kts 349°
2026-05-06 13:53 61.13406 25.97724 887 ft 100 kts 343°
2026-05-06 13:53 61.14163 25.97619 805 ft 112 kts 357°
2026-05-06 13:53 61.14918 25.97868 885 ft 111 kts
2026-05-06 13:54 61.15612 25.98679 892 ft 119 kts 34°
2026-05-06 13:54 61.16233 25.99684 940 ft 110 kts 17°
2026-05-06 13:54 61.16995 25.99944 911 ft 112 kts 359°
2026-05-06 13:54 61.17752 26.00170 972 ft 111 kts
2026-05-06 13:55 61.18554 26.00508 865 ft 119 kts
2026-05-06 13:55 61.19111 26.01766 718 ft 138 kts 83°
2026-05-06 13:55 61.19342 26.03354 899 ft 105 kts 18°
2026-05-06 13:55 61.20049 26.03809 812 ft 110 kts 28°
2026-05-06 13:56 61.20247 26.05404 1105 ft 122 kts 114°
2026-05-06 13:56 61.19603 26.06341 1415 ft 127 kts 178°
2026-05-06 13:56 61.18787 26.06295 1949 ft 109 kts 191°
2026-05-06 13:56 61.18024 26.06155 2308 ft 119 kts 182°
2026-05-06 13:57 61.17158 26.06113 2452 ft 130 kts 202°
2026-05-06 13:57 61.16236 26.05566 2480 ft 150 kts 202°
2026-05-06 13:57 61.15172 26.04974 2670 ft 159 kts 201°
2026-05-06 13:57 61.14121 26.04396 2947 ft 155 kts 200°
2026-05-06 13:58 61.13096 26.03832 3209 ft 150 kts 200°
2026-05-06 13:58 61.12100 26.03279 3463 ft 147 kts 201°
2026-05-06 13:58 61.11103 26.02730 3724 ft 149 kts 201°
2026-05-06 13:58 61.10113 26.02184 3994 ft 146 kts 201°
2026-05-06 13:59 61.09120 26.01635 4250 ft 148 kts 200°
2026-05-06 13:59 61.08141 26.01096 4513 ft 148 kts 201°
2026-05-06 13:59 61.07161 26.00558 4778 ft 145 kts 201°
2026-05-06 13:59 61.06179 26.00016 5035 ft 148 kts 201°
2026-05-06 14:00 61.05186 25.99470 5295 ft 148 kts 200°
2026-05-06 14:00 61.04188 25.98921 5563 ft 149 kts 201°
2026-05-06 14:00 61.03187 25.98374 5820 ft 148 kts 200°
2026-05-06 14:00 61.02183 25.97824 5961 ft 156 kts 200°
2026-05-06 14:01 61.01103 25.97223 5965 ft 163 kts 200°
2026-05-06 14:01 61.00001 25.96617 5966 ft 165 kts 200°
2026-05-06 14:01 60.98903 25.96023 5969 ft 166 kts 200°
2026-05-06 14:01 60.97790 25.95417 5964 ft 166 kts 200°
2026-05-06 14:02 60.96674 25.94807 5961 ft 165 kts 200°
2026-05-06 14:02 60.95563 25.94200 5965 ft 165 kts 201°
2026-05-06 14:02 60.94441 25.93584 5972 ft 169 kts 200°
2026-05-06 14:02 60.93297 25.92962 5960 ft 170 kts 200°
2026-05-06 14:03 60.92158 25.92339 5965 ft 169 kts 200°
2026-05-06 14:03 60.91022 25.91723 5969 ft 169 kts 200°
2026-05-06 14:03 60.89874 25.91099 5973 ft 171 kts 200°
2026-05-06 14:03 60.88737 25.90480 5971 ft 171 kts 200°
2026-05-06 14:04 60.87584 25.89850 5968 ft 172 kts 200°
2026-05-06 14:04 60.86418 25.89219 5974 ft 174 kts 200°
2026-05-06 14:04 60.85249 25.88584 5971 ft 173 kts 200°
2026-05-06 14:04 60.84081 25.87950 5972 ft 174 kts 200°
2026-05-06 14:05 60.82910 25.87317 5970 ft 175 kts 199°
2026-05-06 14:05 60.81729 25.86679 5981 ft 177 kts 200°
2026-05-06 14:05 60.80535 25.86031 5972 ft 178 kts 200°
2026-05-06 14:05 60.79343 25.85378 5969 ft 177 kts 200°
2026-05-06 14:06 60.78161 25.84748 5968 ft 178 kts 198°
2026-05-06 14:06 60.76967 25.84105 5981 ft 178 kts 200°
2026-05-06 14:06 60.75764 25.83456 5976 ft 178 kts 198°
2026-05-06 14:06 60.74566 25.82810 5974 ft 177 kts 199°
2026-05-06 14:07 60.73371 25.82171 5973 ft 177 kts 200°
2026-05-06 14:07 60.72179 25.81522 5974 ft 177 kts 198°
2026-05-06 14:07 60.70980 25.80877 5913 ft 181 kts 199°
2026-05-06 14:07 60.69752 25.80219 5760 ft 182 kts 199°
2026-05-06 14:08 60.68532 25.79566 5593 ft 181 kts 199°
2026-05-06 14:08 60.67328 25.78922 5434 ft 178 kts 199°
2026-05-06 14:08 60.66137 25.78284 5281 ft 177 kts 199°
2026-05-06 14:08 60.64958 25.77649 5128 ft 177 kts 199°
2026-05-06 14:09 60.63773 25.77016 4970 ft 175 kts 198°
2026-05-06 14:09 60.62595 25.76387 4816 ft 175 kts 198°
2026-05-06 14:09 60.61878 25.75944 4891 ft 163 kts 201°
2026-05-06 14:09 60.60898 25.75361 4752 ft 167 kts 197°
2026-05-06 14:10 60.59748 25.74834 4595 ft 172 kts 197°
2026-05-06 14:10 60.58570 25.74233 4435 ft 177 kts 199°
2026-05-06 14:10 60.57361 25.73592 4283 ft 182 kts 198°
2026-05-06 14:10 60.56132 25.72939 4116 ft 183 kts 198°
2026-05-06 14:11 60.54921 25.72293 3982 ft 182 kts 199°
2026-05-06 14:11 60.53702 25.71643 3845 ft 180 kts 198°
2026-05-06 14:11 60.52483 25.70997 3729 ft 183 kts 198°
2026-05-06 14:11 60.51245 25.70341 3596 ft 184 kts 198°
2026-05-06 14:12 60.50011 25.69685 3471 ft 183 kts 199°
2026-05-06 14:12 60.48780 25.69029 3331 ft 182 kts 199°
2026-05-06 14:12 60.47559 25.68385 3207 ft 183 kts 199°
2026-05-06 14:12 60.46330 25.67736 3078 ft 181 kts 199°
2026-05-06 14:13 60.45120 25.67094 2962 ft 181 kts 199°
2026-05-06 14:13 60.43875 25.66435 2705 ft 187 kts 198°
2026-05-06 14:13 60.42595 25.65763 2438 ft 192 kts 198°
2026-05-06 14:13 60.41309 25.65075 2100 ft 193 kts 199°
2026-05-06 14:14 60.40002 25.64275 1583 ft 197 kts 201°
2026-05-06 14:14 60.38719 25.63492 1302 ft 184 kts 195°
2026-05-06 14:14 60.37541 25.63430 925 ft 159 kts 175°
2026-05-06 14:14 60.36648 25.64136 778 ft 131 kts 140°
2026-05-06 14:15 60.36479 25.65766 691 ft 122 kts 68°
2026-05-06 14:15 60.37080 25.66740 616 ft 113 kts 13°
2026-05-06 14:15 60.37828 25.67231 557 ft 113 kts 12°
2026-05-06 14:15 60.38566 25.67382 623 ft 96 kts 327°
2026-05-06 14:16 60.38849 25.66339 634 ft 88 kts 266°
2026-05-06 14:16 60.38607 25.65222 651 ft 91 kts 222°
2026-05-06 14:16 60.37970 25.64843 649 ft 104 kts 196°
2026-05-06 14:16 60.37360 25.64190 706 ft 105 kts 226°
2026-05-06 14:17 60.36822 25.63176 815 ft 110 kts 225°
2026-05-06 14:17 60.36437 25.61832 909 ft 114 kts 255°
2026-05-06 14:17 60.36442 25.60220 1043 ft 121 kts 281°
2026-05-06 14:17 60.36844 25.58661 1179 ft 131 kts 306°
2026-05-06 14:18 60.37590 25.57540 1320 ft 139 kts 332°
2026-05-06 14:18 60.38552 25.57263 1442 ft 147 kts 10°
2026-05-06 14:18 60.39356 25.58594 1479 ft 161 kts 61°
2026-05-06 14:18 60.39432 25.60821 1487 ft 165 kts 110°
2026-05-06 14:19 60.38689 25.62533 1475 ft 164 kts 158°
2026-05-06 14:19 60.37605 25.62657 1486 ft 158 kts 204°
2026-05-06 14:19 60.36789 25.61285 1476 ft 151 kts 235°
2026-05-06 14:19 60.36297 25.59486 1489 ft 149 kts 251°
2026-05-06 14:20 60.36048 25.57464 1481 ft 148 kts 258°
2026-05-06 14:20 60.35843 25.55440 1486 ft 148 kts 259°
2026-05-06 14:20 60.35642 25.53406 1493 ft 147 kts 259°
2026-05-06 14:20 60.35444 25.51381 1497 ft 146 kts 258°
2026-05-06 14:21 60.35243 25.49355 1494 ft 147 kts 259°
2026-05-06 14:21 60.35043 25.47339 1488 ft 146 kts 257°
2026-05-06 14:21 60.34846 25.45341 1479 ft 144 kts 258°
2026-05-06 14:21 60.34648 25.43385 1488 ft 142 kts 259°
2026-05-06 14:22 60.34456 25.41441 1487 ft 140 kts 258°
2026-05-06 14:22 60.34268 25.39530 1432 ft 142 kts 258°
2026-05-06 14:22 60.34070 25.37553 1304 ft 145 kts 259°
2026-05-06 14:22 60.33868 25.35534 1171 ft 148 kts 258°
2026-05-06 14:23 60.33664 25.33506 1035 ft 146 kts 258°
2026-05-06 14:23 60.33465 25.31527 992 ft 142 kts 257°
2026-05-06 14:23 60.33275 25.29625 984 ft 136 kts 257°
2026-05-06 14:23 60.33088 25.27780 991 ft 133 kts 258°
2026-05-06 14:24 60.32905 25.25960 990 ft 132 kts 258°
2026-05-06 14:24 60.32723 25.24168 986 ft 128 kts 257°
2026-05-06 14:24 60.32549 25.22443 987 ft 127 kts 257°
2026-05-06 14:24 60.32386 25.20695 992 ft 127 kts 259°
2026-05-06 14:25 60.32308 25.18912 989 ft 131 kts 278°
2026-05-06 14:25 60.32682 25.17217 967 ft 134 kts 293°
2026-05-06 14:25 60.33099 25.15503 833 ft 138 kts 293°
2026-05-06 14:25 60.33535 25.13756 794 ft 139 kts 290°
2026-05-06 14:26 60.33802 25.11923 794 ft 136 kts 280°
2026-05-06 14:26 60.34050 25.10130 790 ft 130 kts 288°
2026-05-06 14:26 60.34479 25.08587 855 ft 122 kts 296°
2026-05-06 14:26 60.34821 25.07103 952 ft 114 kts 285°
2026-05-06 14:27 60.34953 25.05701 1021 ft 94 kts 275°
2026-05-06 14:27 60.35036 25.04455 952 ft 80 kts 274°
2026-05-06 14:27 60.35118 25.03395 850 ft 73 kts 269°
2026-05-06 14:27 60.35061 25.02395 764 ft 72 kts 248°
2026-05-06 14:28 60.34767 25.01572 675 ft 74 kts 225°
2026-05-06 14:28 60.34419 25.00814 631 ft 72 kts 223°
2026-05-06 14:28 60.34066 25.00056 583 ft 74 kts 230°
2026-05-06 14:28 60.33724 24.99277 466 ft 77 kts 219°
2026-05-06 14:29 60.33473 24.98778 373 ft 76 kts 227°
2026-05-06 14:29 60.33033 24.97842 197 ft 66 kts 224°
2026-05-06 14:29 60.32756 24.97220 158 ft 45 kts 228°
2026-05-06 14:29 60.32596 24.96868 159 ft 25 kts 227°
2026-05-06 14:30 60.32512 24.96686 157 ft 7 kts 217°
2026-05-06 14:30 60.32474 24.96678 157 ft 5 kts 162°
2026-05-06 14:30 60.32392 24.96753 156 ft 20 kts 151°
2026-05-06 14:30 60.32313 24.96838 155 ft 19 kts 151°
2026-05-06 14:31 60.32185 24.96970 155 ft 23 kts 153°
2026-05-06 14:31 60.32035 24.97125 155 ft 26 kts 151°
2026-05-06 14:31 60.31875 24.97292 155 ft 25 kts 154°
2026-05-06 14:31 60.31677 24.97498 155 ft 24 kts 155°
2026-05-06 14:32 60.31521 24.97651 155 ft 27 kts 153°
2026-05-06 14:32 60.31403 24.97780 155 ft 29 kts 155°
2026-05-06 14:32 60.31221 24.97968 155 ft 27 kts 152°
2026-05-06 14:32 60.31088 24.98103 155 ft 12 kts 171°
2026-05-06 14:33 60.31036 24.98013 156 ft 11 kts 202°
2026-05-06 14:33 60.30951 24.98072 156 ft 16 kts 153°
2026-05-06 14:33 60.30872 24.98153 156 ft 3 kts 277°
2026-05-06 14:33 60.30872 24.98149 156 ft 0 kts 285°